SCP
0 0 0 0 0 0 0 1 1 1 0 0 0 0 0 0 0 0 1 1 0 0 0 0 0 0 0 0 0 0 0 1 1 1 0 1 1 1 1 1 1 1 1
0 0 0 0 0 0 0 0 1 0 0 0 0 0 0 1 1 1 0 0 1 1 1 0 0 0 0 0 0 0 0 1 1 1 0 0 1 1 1 1 1 1 1
0 0 0 0 0 0 0 0 0 0 0 0 0 1 1 1 1 1 0 0 1 1 0 0 1 1 0 0 0 0 0 1 1 0 0 0 0 1 1 1 1 1 1
0 0 0 0 0 0 0 0 1 1 1 1 1 1 1 1 1 1 1 0 0 0 0 0 0 1 1 0 0 0 1 1 0 0 0 0 0 0 1 1 0 0 1
0 0 0 0 0 0 0 0 1 1 1 1 1 1 1 1 1 1 1 0 0 0 0 0 0 1 1 1 0 0 1 0 0 0 0 0 0 0 1 1 0 0 0
1 1 0 1 0 0 0 0 1 1 1 1 1 1 1 1 1 1 1 1 0 0 0 0 0 1 1 1 1 1 1 0 0 0 0 0 0 1 1 1 1 0 0
1 1 1 1 1 1 1 1 1 1 1 1 1 1 1 1 1 1 1 1 1 1 1 1 1 1 1 1 1 1 1 0 0 0 0 0 0 1 1 1 1 1 1
1 1 1 1 1 1 1 1 1 1 1 1 1 2 2 2 1 1 1 1 1 1 1 1 1 1 1 1 1 1 1 0 0 0 0 0 0 1 1 1 1 1 1
1 1 1 1 1 1 1 1 1 1 1 1 1 2 2 2 2 1 1 1 1 1 1 1 1 1 1 1 1 1 1 1 0 0 0 0 0 1 1 1 1 1 1
1 1 1 1 1 1 1 1 1 1 1 1 1 1 2 2 2 2 1 1 1 1 1 1 1 1 1 1 1 1 1 1 1 0 0 0 1 1 1 1 1 1 1
1 2 2 2 2 1 1 1 1 1 1 1 1 1 2 2 2 2 1 1 1 1 1 1 1 1 1 1 1 1 1 1 1 1 1 1 1 1 1 1 1 1 1
1 2 2 2 2 1 1 1 1 1 1 1 1 1 1 2 2 2 1 1 1 1 1 1 0 0 0 0 0 1 0 1 1 1 1 1 1 1 1 1 1 1 1
1 1 2 2 2 1 1 1 1 1 1 1 1 1 1 1 1 1 1 1 1 1 0 0 0 0 0 0 0 0 0 0 0 1 1 1 1 1 1 1 1 1 1
1 1 1 2 2 1 1 1 1 1 1 1 1 1 1 1 1 1 1 1 0 0 0 0 0 0 0 0 0 0 0 0 0 0 1 1 1 1 1 1 1 1 1
2 2 1 1 1 1 1 1 1 0 0 0 0 0 0 1 1 1 1 0 0 0 0 0 0 0 0 0 0 0 0 0 0 0 1 1 1 1 1 1 1 1 1
2 2 2 2 2 1 1 1 1 1 0 0 0 0 0 0 0 0 0 0 0 0 0 0 0 0 0 0 0 0 0 0 0 0 0 1 1 1 1 1 1 1 1
2 2 2 2 2 1 1 1 1 1 0 0 0 0 0 0 0 0 0 0 0 0 0 0 0 0 0 0 0 0 0 0 0 0 0 1 1 1 1 1 1 1 1
2 2 2 2 2 1 1 1 1 1 1 0 0 0 0 0 0 0 0 0 0 0 0 0 0 0 0 0 0 0 0 0 0 0 0 0 1 1 1 1 2 1 1
2 2 3 2 2 1 1 1 1 1 1 0 0 0 0 0 0 0 0 0 0 0 0 0 0 0 0 0 0 0 0 0 0 0 0 0 0 1 1 1 1 2 1
1 2 2 2 2 1 1 1 1 1 1 1 0 0 0 0 0 0 0 0 0 0 0 0 0 0 0 0 0 0 0 0 0 0 0 0 0 0 1 1 1 1 1
1 1 2 2 1 1 1 1 1 1 1 1 0 0 0 0 0 0 0 0 0 0 0 0 0 0 0 0 0 0 0 0 0 0 0 0 0 0 0 0 1 1 1
1 1 1 1 1 1 1 1 1 1 1 0 0 0 0 0 0 0 0 0 0 0 0 0 0 0 0 0 0 0 0 0 0 0 0 0 0 0 0 0 0 0 1
1 1 1 1 1 0 0 0 0 1 0 0 0 0 0 0 0 0 0 0 0 0 0 0 0 0 0 0 0 0 0 0 0 0 0 0 0 0 0 0 0 0 0
0 1 1 1 1 0 0 0 0 0 0 0 0 0 0 0 0 0 0 0 0 0 0 0 0 0 0 0 0 0 0 0 0 0 0 0 0 0 0 0 0 0 0
0 0 1 2 2 1 1 1 1 1 1 0 0 0 0 0 0 0 0 0 0 0 0 0 0 0 0 0 0 0 0 0 0 0 0 0 0 0 0 0 0 0 0
0 0 1 2 2 2 2 1 1 1 1 0 0 0 0 0 0 0 0 0 0 0 0 0 0 0 0 0 0 0 0 0 0 0 0 0 0 0 0 0 0 0 0
Wind_Speed
2 3 1 3 5 6 6 7 8 8 9 10 10 11 11 11 11 11 11 11 12 11 11 11 11 11 11 11 11 11 11 10 10 10 10 9 9 10 10 10 9 6 9
1 1 1 4 5 6 7 7 8 8 9 10 10 10 10 11 11 11 11 11 11 11 11 11 11 11 11 11 11 11 11 11 10 10 9 8 9 9 9 9 9 6 9
1 0 1 4 5 7 7 7 8 8 9 9 9 10 10 10 10 10 11 11 11 11 11 11 11 11 11 11 11 11 11 11 11 11 10 5 6 9 8 9 9 9 9
1 1 2 4 6 6 7 7 8 8 9 9 9 10 10 10 10 10 10 10 10 10 10 10 10 10 11 11 11 11 11 11 11 10 6 5 4 9 9 8 8 8 8
2 1 1 5 6 7 7 7 7 8 8 9 9 9 9 9 9 10 10 10 9 9 9 9 9 10 10 11 11 11 11 11 11 9 6 5 4 8 9 9 8 7 7
2 1 1 5 6 7 7 7 7 8 7 8 8 9 9 9 9 9 10 9 9 8 8 8 9 9 10 10 11 11 11 11 9 6 5 4 4 8 9 9 8 7 7
2 2 2 5 6 6 7 7 7 7 7 7 8 8 8 9 9 9 9 9 8 8 8 8 8 9 10 10 10 11 11 10 7 5 5 4 5 8 9 9 8 7 8
2 2 2 4 6 6 6 6 6 6 6 7 7 8 8 9 9 9 9 9 8 8 8 8 9 9 9 10 10 10 10 9 7 5 4 4 6 8 9 8 8 7 7
3 3 3 3 3 4 5 5 6 6 6 7 7 8 8 8 9 9 9 9 9 9 9 9 9 9 9 10 10 10 10 10 5 3 4 3 6 8 8 9 9 8 7
3 3 2 3 3 3 2 4 5 6 7 7 8 8 8 8 8 8 8 9 9 10 10 11 10 10 10 10 10 10 10 8 5 4 3 4 7 8 8 8 9 9 8
2 2 2 2 3 3 3 4 5 6 7 7 6 8 7 5 4 5 7 9 10 10 11 11 10 10 10 10 10 10 8 4 4 3 3 5 7 8 8 8 9 9 9
1 0 1 2 2 3 3 4 3 4 4 4 4 4 3 3 4 5 7 9 10 10 11 11 11 10 8 5 6 8 4 4 4 3 3 7 7 8 8 9 9 9 10
2 1 1 1 2 2 3 3 2 2 2 3 3 4 3 3 3 4 3 4 5 7 5 7 7 5 4 4 4 4 4 3 3 3 4 8 8 9 9 9 10 10 10
2 2 2 2 2 2 2 2 2 2 2 2 2 3 3 2 3 3 3 3 3 3 3 3 3 4 5 5 4 4 4 3 3 2 4 8 8 8 9 9 9 10 10
3 2 2 3 2 2 2 1 2 1 1 2 2 2 3 2 2 2 2 3 3 3 3 3 3 4 4 4 4 4 4 4 4 4 3 8 8 8 8 9 9 9 9
3 3 3 3 3 3 2 2 1 1 1 2 1 2 2 2 2 2 2 3 2 2 2 3 3 3 3 3 4 4 4 3 3 4 3 5 8 8 8 8 8 8 8
3 3 3 4 3 3 3 2 1 1 1 1 1 1 2 2 3 3 2 2 2 2 3 3 3 3 3 3 4 4 3 4 3 4 3 3 3 7 8 7 7 7 7
3 3 3 3 4 3 2 2 1 1 2 1 1 1 2 2 3 3 2 2 2 2 2 2 2 3 3 3 3 3 3 3 4 4 4 3 3 3 5 8 7 7 7
4 3 3 2 4 3 3 2 2 2 2 1 1 1 1 2 2 3 2 1 2 2 2 2 2 2 2 2 2 2 2 3 3 3 4 4 3 3 3 6 8 7 7
3 3 3 3 3 3 3 2 2 2 1 1 1 1 1 1 2 3 2 2 2 2 2 2 2 2 2 2 3 3 2 2 2 3 3 3 3 4 4 4 4 5 7
2 3 3 3 3 3 2 2 1 1 0 0 0 1 1 2 2 3 2 2 2 2 2 2 2 3 2 1 2 2 3 2 2 2 2 2 3 3 3 3 3 3 3
3 3 3 3 3 3 2 2 1 1 1 1 0 1 1 1 2 2 3 2 2 2 2 2 2 2 1 1 2 2 2 3 3 3 2 2 2 2 3 3 3 3 2
3 4 4 3 3 3 3 2 2 2 2 1 1 0 0 1 1 2 2 2 2 2 2 1 2 2 1 1 1 2 2 1 1 2 2 2 2 2 2 2 3 3 2
5 4 3 3 3 2 3 3 3 2 2 2 1 1 1 1 2 2 2 3 3 2 2 2 2 2 2 1 1 1 1 3 2 1 2 2 2 2 2 2 2 2 2
4 4 3 4 3 3 3 4 3 2 2 1 0 1 1 0 1 2 2 2 2 2 2 2 2 2 2 2 2 1 2 2 2 2 1 2 2 2 1 1 1 1 2
3 3 3 4 3 3 3 3 3 3 2 1 1 1 1 1 1 1 2 2 2 2 2 2 2 3 2 2 2 2 2 2 2 2 2 1 1 2 2 1 1 1 1
Wind_Direction
284 285 314 67 73 79 75 77 80 79 81 82 81 82 84 87 90 91 89 88 87 86 85 86 86 85 86 85 85 84 84 83 85 87 91 94 99 106 109 110 108 104 108
219 278 76 78 80 80 75 76 80 81 80 81 84 83 83 86 89 90 91 91 89 86 85 83 82 82 83 83 83 84 82 80 79 81 84 86 91 102 107 112 112 109 112
131 349 85 88 88 83 77 77 80 81 81 81 82 83 85 86 88 89 88 90 90 88 86 84 82 80 82 82 82 83 81 79 76 76 71 63 78 90 98 107 111 112 113
121 69 90 98 96 93 83 76 80 83 85 83 82 82 82 84 87 90 88 88 89 88 86 82 80 80 81 81 80 80 80 80 78 74 61 56 65 84 86 96 105 108 109
92 55 87 100 99 100 95 87 83 83 86 85 83 82 82 83 87 89 89 87 89 89 88 85 81 79 79 79 78 77 79 79 78 70 61 57 57 78 81 84 88 94 102
87 50 73 99 98 102 100 97 91 88 87 88 86 85 84 83 85 85 84 85 87 88 88 86 83 80 78 78 77 76 76 78 73 65 60 59 62 78 83 85 85 89 97
97 49 49 89 94 97 98 98 95 92 90 90 87 86 85 82 79 82 81 80 81 83 83 82 81 80 77 77 78 77 76 78 71 63 58 56 64 75 77 80 81 88 98
104 66 46 79 86 94 98 99 96 95 94 91 85 84 82 79 79 82 83 81 79 79 80 80 80 79 78 78 78 76 74 73 70 65 57 54 68 73 75 74 75 80 92
81 71 43 41 55 76 92 94 95 96 93 89 85 83 79 76 76 79 79 79 77 74 75 76 77 76 78 78 74 73 72 70 64 54 59 53 69 73 73 73 73 74 83
66 62 49 38 35 29 40 86 96 92 88 82 79 76 73 69 67 70 73 75 76 76 74 74 72 71 71 73 73 72 71 65 53 51 43 56 70 74 74 74 72 70 75
77 50 51 43 32 26 32 77 85 84 75 70 66 69 66 51 47 54 63 70 70 73 72 70 68 67 63 63 67 66 61 51 50 46 43 60 67 70 71 73 73 72 72
169 96 62 56 39 32 47 59 60 66 61 60 58 57 55 52 48 55 54 63 65 68 69 67 64 60 56 48 54 56 46 44 45 38 48 62 64 65 68 73 74 74 73
184 150 123 99 61 52 49 59 55 57 56 55 60 60 57 52 48 46 44 46 49 55 53 55 53 48 50 50 53 53 46 46 36 28 38 55 61 65 68 73 75 76 75
171 177 148 125 98 72 69 67 68 68 61 56 54 60 63 57 50 46 50 45 46 47 53 50 55 53 52 50 55 57 50 46 37 25 35 50 59 66 71 73 74 74 74
184 185 165 142 132 111 92 82 84 79 75 65 60 61 76 76 66 60 56 55 51 53 58 55 58 57 51 47 50 56 50 43 40 36 23 43 53 62 68 71 75 74 74
189 190 171 157 148 129 121 113 100 91 80 72 65 72 86 93 90 81 70 60 54 56 60 68 71 69 57 54 52 49 47 39 39 39 30 31 42 51 57 63 66 71 74
189 183 175 166 146 140 135 131 118 111 104 95 84 83 94 102 105 98 86 70 55 63 70 72 67 67 63 56 50 45 46 37 37 35 32 28 25 38 48 57 59 65 67
170 171 180 168 148 147 138 127 112 105 108 102 100 97 104 108 115 105 97 85 73 72 75 78 70 72 61 54 50 39 39 36 36 36 36 30 28 26 31 44 53 56 59
165 165 162 150 152 150 133 113 101 92 88 87 95 106 118 121 121 118 112 100 87 79 71 79 64 81 82 65 65 49 35 36 30 40 36 32 33 33 27 32 38 44 51
151 151 146 146 148 134 117 97 80 73 67 69 86 112 123 126 129 125 122 113 101 92 73 75 74 64 83 80 74 54 32 33 37 39 35 31 32 36 35 34 26 26 39
138 140 150 154 155 134 121 133 134 151 136 91 133 129 132 135 138 138 133 124 114 115 119 114 101 78 59 68 76 42 16 28 47 41 35 37 30 29 37 37 32 27 20
163 165 164 168 159 161 161 152 148 140 145 157 97 77 116 147 152 153 150 151 139 122 113 113 109 97 66 68 105 90 24 356 8 24 30 45 28 27 34 35 36 33 24
175 178 177 178 168 169 152 117 89 66 44 40 21 321 249 173 171 160 158 154 154 149 160 160 140 130 130 46 84 131 135 218 315 345 16 27 18 30 22 19 34 27 22
199 182 170 164 157 160 155 147 146 154 182 214 208 212 222 176 164 161 161 160 161 160 167 180 155 145 138 139 75 74 132 155 146 334 342 359 10 23 10 13 20 16 19
191 175 174 155 152 155 153 158 152 158 187 196 176 191 213 161 160 164 164 157 164 169 174 173 155 156 151 154 154 138 106 80 106 142 252 326 348 349 352 350 352 354 1
170 163 160 155 165 162 160 157 163 170 160 140 172 199 224 219 198 190 175 168 173 175 179 184 171 166 168 158 155 151 152 155 168 156 176 236 288 307 329 332 322 321 334